• Em Portugal
  • Lista de países
  • Para 7 dias
  • Temperatura da água
  • Mapas de satélite
  • Mapa do tempo
  • Widgets de tempo
  • user-avatar
    Iniciar Sessão

    Previsão horária em Sucre

    Hoje, 14 Novembro, Quarta-feira

    Tempo Temperatura Precipitação Vento Pressão Humidade
    00:00 +17°C° 0.2 mm 2 m/s 541 mmHg 78%
    01:00 +18°C° 0.2 mm 1 m/s 541 mmHg 79%
    02:00 +16°C° 0.2 mm 1 m/s 540 mmHg 80%
    03:00 +16°C° 0.1 mm 1 m/s 540 mmHg 82%
    04:00 +16°C° 0.1 mm 1 m/s 540 mmHg 83%
    05:00 +15°C° 0.1 mm 1 m/s 540 mmHg 85%
    06:00 +16°C° 0.2 mm 1 m/s 541 mmHg 81%
    07:00 +16°C° 0.2 mm 1 m/s 541 mmHg 78%
    08:00 +18°C° 0.2 mm 1 m/s 542 mmHg 75%
    09:00 +18°C° 0.7 mm 2 m/s 543 mmHg 68%
    10:00 +19°C° 0.7 mm 2 m/s 543 mmHg 62%
    11:00 +20°C° 0.7 mm 3 m/s 544 mmHg 55%
    12:00 +21°C° 0.7 mm 3 m/s 543 mmHg 53%
    13:00 +21°C° 0.7 mm 4 m/s 543 mmHg 51%
    14:00 +22°C° 0.7 mm 4 m/s 543 mmHg 50%
    15:00 +21°C° 0.2 mm 4 m/s 542 mmHg 54%
    16:00 +20°C° 0.2 mm 4 m/s 541 mmHg 58%
    17:00 +19°C° 0.2 mm 4 m/s 541 mmHg 63%
    18:00 +19°C° 0.2 mm 4 m/s 541 mmHg 68%
    19:00 +18°C° 0.2 mm 3 m/s 541 mmHg 73%
    20:00 +17°C° 0.2 mm 3 m/s 541 mmHg 78%
    21:00 +16°C° 0.1 mm 2 m/s 541 mmHg 79%
    22:00 +16°C° 0.1 mm 2 m/s 541 mmHg 81%
    23:00 +15°C° 0.1 mm 2 m/s 541 mmHg 83%

    Amanhã, 15 Novembro, Quinta-feira

    Tempo Temperatura Precipitação Vento Pressão Humidade
    00:00 +15°C° 0.1 mm 2 m/s 541 mmHg 84%
    01:00 +15°C° 0.1 mm 2 m/s 540 mmHg 85%
    02:00 +15°C° 0.1 mm 2 m/s 540 mmHg 86%
    03:00 +15°C° 0.1 mm 2 m/s 540 mmHg 86%
    04:00 +14°C° 0.1 mm 2 m/s 540 mmHg 86%
    05:00 +14°C° 0.1 mm 2 m/s 540 mmHg 86%
    06:00 +15°C° 0 mm 2 m/s 540 mmHg 84%
    07:00 +15°C° 0 mm 2 m/s 540 mmHg 82%
    08:00 +15°C° 0 mm 2 m/s 541 mmHg 80%
    09:00 +16°C° 0 mm 2 m/s 541 mmHg 75%
    10:00 +17°C° 0 mm 2 m/s 542 mmHg 70%
    11:00 +18°C° 0 mm 3 m/s 542 mmHg 64%
    12:00 +19°C° 0.2 mm 3 m/s 542 mmHg 63%
    13:00 +19°C° 0.2 mm 3 m/s 541 mmHg 62%
    14:00 +19°C° 0.2 mm 3 m/s 540 mmHg 61%
    15:00 +19°C° 0.2 mm 3 m/s 540 mmHg 63%
    16:00 +18°C° 0.2 mm 3 m/s 539 mmHg 65%
    17:00 +18°C° 0.2 mm 3 m/s 539 mmHg 67%
    18:00 +17°C° 0.3 mm 3 m/s 539 mmHg 69%
    19:00 +17°C° 0.3 mm 2 m/s 539 mmHg 72%
    20:00 +16°C° 0.3 mm 2 m/s 540 mmHg 75%
    21:00 +16°C° 0 mm 2 m/s 540 mmHg 77%
    22:00 +15°C° 0 mm 1 m/s 540 mmHg 79%
    23:00 +15°C° 0 mm 1 m/s 540 mmHg 81%

    Depois de amanhã, 16 Novembro, Sexta-feira

    Tempo Temperatura Precipitação Vento Pressão Humidade
    00:00 +15°C° 0 mm 1 m/s 540 mmHg 83%
    01:00 +15°C° 0 mm 1 m/s 539 mmHg 84%
    02:00 +14°C° 0 mm 1 m/s 539 mmHg 86%
    03:00 +14°C° 0 mm 1 m/s 539 mmHg 87%
    04:00 +13°C° 0 mm 0 m/s 539 mmHg 88%
    05:00 +13°C° 0 mm 0 m/s 539 mmHg 88%
    06:00 +15°C° 0 mm 1 m/s 540 mmHg 83%
    07:00 +15°C° 0 mm 1 m/s 540 mmHg 77%
    08:00 +16°C° 0 mm 1 m/s 541 mmHg 72%
    09:00 +18°C° 0.1 mm 2 m/s 542 mmHg 65%
    10:00 +19°C° 0.1 mm 2 m/s 542 mmHg 59%
    11:00 +20°C° 0.1 mm 3 m/s 543 mmHg 52%
    12:00 +21°C° 1.1 mm 4 m/s 543 mmHg 52%
    13:00 +21°C° 1.1 mm 4 m/s 542 mmHg 51%
    14:00 +21°C° 1.1 mm 5 m/s 542 mmHg 50%
    15:00 +21°C° 0.6 mm 5 m/s 541 mmHg 53%
    16:00 +20°C° 0.6 mm 5 m/s 541 mmHg 57%
    17:00 +19°C° 0.6 mm 5 m/s 540 mmHg 60%
    18:00 +18°C° 0.7 mm 4 m/s 540 mmHg 64%
    19:00 +17°C° 0.7 mm 3 m/s 540 mmHg 68%
    20:00 +17°C° 0.7 mm 2 m/s 541 mmHg 72%
    21:00 +16°C° 0.5 mm 2 m/s 541 mmHg 74%
    22:00 +16°C° 0.5 mm 2 m/s 541 mmHg 77%
    23:00 +15°C° 0.5 mm 1 m/s 541 mmHg 79%

    17 Novembro, Sábado

    Tempo Temperatura Precipitação Vento Pressão Humidade
    00:00 +15°C° 0.4 mm 1 m/s 540 mmHg 81%
    01:00 +15°C° 0.4 mm 1 m/s 539 mmHg 83%
    02:00 +14°C° 0.4 mm 1 m/s 539 mmHg 85%
    03:00 +14°C° 0.3 mm 1 m/s 539 mmHg 86%
    04:00 +14°C° 0.3 mm 1 m/s 539 mmHg 87%
    05:00 +14°C° 0.3 mm 1 m/s 538 mmHg 88%
    06:00 +15°C° 0.4 mm 1 m/s 539 mmHg 83%
    07:00 +15°C° 0.4 mm 1 m/s 540 mmHg 78%
    08:00 +16°C° 0.4 mm 1 m/s 541 mmHg 73%
    09:00 +18°C° 0.6 mm 2 m/s 541 mmHg 66%
    10:00 +19°C° 0.6 mm 2 m/s 541 mmHg 59%
    11:00 +21°C° 0.6 mm 3 m/s 542 mmHg 53%
    12:00 +21°C° 0.5 mm 3 m/s 541 mmHg 50%
    13:00 +22°C° 0.5 mm 3 m/s 541 mmHg 48%
    14:00 +24°C° 0.5 mm 3 m/s 541 mmHg 45%
    15:00 +22°C° 1 mm 3 m/s 540 mmHg 47%
    16:00 +22°C° 1 mm 3 m/s 540 mmHg 48%
    17:00 +22°C° 1 mm 4 m/s 539 mmHg 50%
    18:00 +21°C° 1.4 mm 3 m/s 539 mmHg 55%
    19:00 +20°C° 1.4 mm 2 m/s 539 mmHg 60%
    20:00 +19°C° 1.4 mm 2 m/s 539 mmHg 65%
    21:00 +18°C° 1 mm 2 m/s 539 mmHg 68%
    22:00 +18°C° 1 mm 2 m/s 539 mmHg 70%
    23:00 +17°C° 1 mm 2 m/s 540 mmHg 73%

    18 Novembro, Domingo

    Tempo Temperatura Precipitação Vento Pressão Humidade
    00:00 +17°C° 0 mm 2 m/s 539 mmHg 75%
    01:00 +18°C° 0 mm 1 m/s 539 mmHg 77%
    02:00 +16°C° 0 mm 1 m/s 538 mmHg 79%
    03:00 +16°C° 0 mm 1 m/s 538 mmHg 79%
    04:00 +15°C° 0 mm 0 m/s 538 mmHg 80%
    05:00 +15°C° 0 mm 0 m/s 538 mmHg 81%
    06:00 +18°C° 0.3 mm 1 m/s 539 mmHg 75%
    07:00 +18°C° 0.3 mm 1 m/s 540 mmHg 70%
    08:00 +19°C° 0.3 mm 1 m/s 541 mmHg 64%
    09:00 +19°C° 1.5 mm 2 m/s 542 mmHg 61%
    10:00 +20°C° 1.5 mm 3 m/s 542 mmHg 57%
    11:00 +21°C° 1.5 mm 4 m/s 543 mmHg 54%
    12:00 +20°C° 1.9 mm 4 m/s 542 mmHg 57%
    13:00 +20°C° 1.9 mm 5 m/s 542 mmHg 60%
    14:00 +19°C° 1.9 mm 5 m/s 541 mmHg 63%
    15:00 +18°C° 1.2 mm 4 m/s 541 mmHg 67%
    16:00 +17°C° 1.2 mm 4 m/s 540 mmHg 71%
    17:00 +15°C° 1.2 mm 4 m/s 540 mmHg 74%
    18:00 +14°C° 1.1 mm 3 m/s 540 mmHg 77%
    19:00 +14°C° 1.1 mm 3 m/s 541 mmHg 80%
    20:00 +14°C° 1.1 mm 2 m/s 541 mmHg 84%
    21:00 +14°C° 1.2 mm 2 m/s 541 mmHg 84%
    22:00 +13°C° 1.2 mm 2 m/s 541 mmHg 85%
    23:00 +12°C° 1.2 mm 3 m/s 541 mmHg 86%

    19 Novembro, Segunda-feira

    Tempo Temperatura Precipitação Vento Pressão Humidade
    00:00 +13°C° 0.3 mm 2 m/s 541 mmHg 86%
    01:00 +13°C° 0.3 mm 2 m/s 540 mmHg 86%
    02:00 +12°C° 0.3 mm 2 m/s 540 mmHg 86%
    03:00 +12°C° 0.3 mm 2 m/s 540 mmHg 87%
    04:00 +12°C° 0.3 mm 2 m/s 540 mmHg 87%
    05:00 +12°C° 0.3 mm 2 m/s 540 mmHg 88%
    06:00 +12°C° 0.8 mm 2 m/s 540 mmHg 88%
    07:00 +12°C° 0.8 mm 1 m/s 541 mmHg 87%
    08:00 +11°C° 0.8 mm 1 m/s 541 mmHg 87%
    09:00 +12°C° 0.4 mm 1 m/s 542 mmHg 83%
    10:00 +13°C° 0.4 mm 1 m/s 542 mmHg 79%
    11:00 +14°C° 0.4 mm 2 m/s 542 mmHg 75%
    12:00 +14°C° 0.3 mm 2 m/s 542 mmHg 73%
    13:00 +15°C° 0.3 mm 2 m/s 542 mmHg 71%
    14:00 +16°C° 0.3 mm 2 m/s 541 mmHg 69%
    15:00 +15°C° 0.2 mm 2 m/s 541 mmHg 69%
    16:00 +15°C° 0.2 mm 2 m/s 541 mmHg 70%
    17:00 +15°C° 0.2 mm 2 m/s 540 mmHg 70%
    18:00 +15°C° 0.1 mm 2 m/s 540 mmHg 73%
    19:00 +15°C° 0.1 mm 2 m/s 541 mmHg 75%
    20:00 +14°C° 0.1 mm 2 m/s 541 mmHg 78%
    21:00 +14°C° 0 mm 2 m/s 541 mmHg 80%
    22:00 +14°C° 0 mm 1 m/s 541 mmHg 81%
    23:00 +13°C° 0 mm 1 m/s 541 mmHg 83%
    Mostrar mais